CFG321 EDDV-EGLL

Flight info

Callsign CFG321
Flight time N/A
Altitude 36000
Route VAXEV2F/27L VAXEV Y347 WEZTE DCT ABNED L980 LOGAN LOGAN2H
Aircraft A321/M-V/N

Departure

Time 2026-05-05 13:57
Airport Hannover Airport (EDDV)

Arrival

Time N/A
Airport London Heathrow Airport (EGLL)
Time Latitude Longitude Altitude Speed Heading
2026-05-05 13:36 52.45768 9.69576 178 ft 0 kts 52°
2026-05-05 13:48 52.45767 9.69575 179 ft 1 kts 52°
2026-05-05 13:48 52.45759 9.69557 179 ft 3 kts 56°
2026-05-05 13:48 52.45748 9.69528 179 ft 3 kts 65°
2026-05-05 13:49 52.45741 9.69498 179 ft 3 kts 83°
2026-05-05 13:49 52.45742 9.69470 179 ft 3 kts 124°
2026-05-05 13:49 52.45748 9.69457 179 ft 0 kts 152°
2026-05-05 13:49 52.45749 9.69457 179 ft 2 kts 152°
2026-05-05 13:53 52.45748 9.69458 179 ft 1 kts 152°
2026-05-05 13:53 52.45694 9.69520 179 ft 15 kts 127°
2026-05-05 13:54 52.45677 9.69692 179 ft 16 kts 92°
2026-05-05 13:54 52.45673 9.69879 163 ft 18 kts 92°
2026-05-05 13:54 52.45669 9.70083 179 ft 19 kts 93°
2026-05-05 13:54 52.45662 9.70308 179 ft 20 kts 93°
2026-05-05 13:55 52.45657 9.70506 179 ft 16 kts 92°
2026-05-05 13:55 52.45634 9.70637 179 ft 10 kts 128°
2026-05-05 13:55 52.45596 9.70730 179 ft 9 kts 117°
2026-05-05 13:55 52.45578 9.70855 179 ft 21 kts 94°
2026-05-05 13:56 52.45536 9.71077 179 ft 21 kts 143°
2026-05-05 13:56 52.45425 9.71059 201 ft 13 kts 229°
2026-05-05 13:56 52.45407 9.70933 186 ft 11 kts 269°
2026-05-05 13:56 52.45410 9.70745 188 ft 43 kts 272°
2026-05-05 13:57 52.45434 9.69976 183 ft 118 kts 272°
2026-05-05 13:57 52.45483 9.68537 326 ft 161 kts 274°
2026-05-05 13:57 52.45549 9.66729 1146 ft 159 kts 277°
2026-05-05 13:57 52.45663 9.64930 1929 ft 159 kts 288°
2026-05-05 13:58 52.46212 9.63342 2533 ft 169 kts 316°
2026-05-05 13:58 52.47098 9.61905 2879 ft 189 kts 317°
2026-05-05 13:58 52.48094 9.60334 3072 ft 209 kts 317°
2026-05-05 13:58 52.49182 9.58624 3253 ft 222 kts 316°
2026-05-05 13:59 52.51438 9.55056 3759 ft 233 kts 316°
2026-05-05 13:59 52.52664 9.53102 3860 ft 256 kts 315°
2026-05-05 14:00 52.55264 9.48943 3964 ft 263 kts 315°
2026-05-05 14:00 52.56553 9.46879 4020 ft 262 kts 315°